Terug naar catalogus

FENGYUN 1C DEB

ActiefSSO
NORAD 37437·DEBRIS·🇨🇳 China

Gelanceerd May 10, 1999 vanaf Taiyuan Satellite Launch Center

Loading…

Volgende Passages (komende 24 uur)

TLE

VerouderendSource: Space-Track

Epoch: Sep 8, 2026, 04:57 UTC

1 37437U 99025EHF 26251.20654144  .00000696  00000-0  33063-3 0  9990
2 37437  98.6053 240.0953 0111596 351.2378  69.1542 14.19381610678138

Volg FENGYUN 1C DEB in realtime met AllMySat

Download on the App Store